Location: Saint-Maurice-d�Ard�che
(44.5216°N, 4.4002°E)
Time: 03:24:25
(UTC+00:00)

NOSS 3-3 (A) - Pass Details

Date: 30 March 2020
Orbit: 834 x 1378 km, 63.4° (Epoch: 05 May)

Event Time Altitude Azimuth Distance (km) Brightness Sun altitude
Rises 19:39:45 0° 193° (SSW) 3,399 6.7 -16.6°
Reaches altitude 10° 19:42:13 10° 187° (S) 2,501 6.0 -17.0°
Maximum altitude 19:47:39 44° 117° (ESE) 1,258 4.1 -17.9°
Drops below altitude 10° 19:53:39 10° 47° (NE) 2,780 6.2 -18.8°
Sets 19:56:32 0° 42° (NE) 3,820 7.0 -19.3°
